www.pogodaiklimat.ru

Погода и климат >> Архив погоды >> Бельгия >> Мелле


ПОГОДА в Мелле

  • Прогноз погоды в Мелле
  • Монитор погоды в Мелле

АРХИВ ПОГОДЫ в Мелле

Время (UTC), дата Ветер
(напр.,м/с)
 
Видим.   Явления Облачность Т
(С)
Тd
(С)
f
(%)
Тe
(С)
Тes
(С)
Комфортность P
(гПа)
Po
(гПа)
Тmin
(С)
Tmax
(С)
R
(мм)
R24
(мм)
S
(см)
13 13.06 ЮЗ 5 н/о н/о +14.8 +10.8 77 +13 +13 1010.8 1008.9 53
14 13.06 З 3 н/о н/о +14.7 +11.8 83 +14 +14 1010.8 1008.8 65
15 13.06 ЮЗ 8 н/о н/о +15.9 +10.7 71 +14 +14 1010.7 1008.7 117
16 13.06 ЮЗ 5 н/о н/о +17.3 +10.8 66 +17 +17 1010.2 1008.3 110
17 13.06 З 3 н/о н/о +14.5 +11.7 83 +14 +14 1010.8 1008.8 56
18 13.06 З 1
{14}
н/о н/о +14.5 +11.5 82 +15 +15 1010.8 1008.8 +17.6 45
19 13.06 ЮЗ 2 н/о н/о +15.1 +11.1 77 +15 +15 1011.3 1009.4 36
20 13.06 Ю 2 н/о н/о +14.6 +10.9 78 +14 +14 1012.1 1010.1 8
21 13.06 Ю 2 н/о н/о +13.9 +9.6 75 +13 +13 1012.6 1010.6
22 13.06 ЮВ 2 н/о н/о +14.1 +9.9 76 +14 +14 1013.1 1011.1
23 13.06 ЮВ 2 н/о н/о +13.1 +10.8 86 +12 +12 1013.1 1011.1
00 14.06 Ю 2 н/о н/о +12.8 +10.6 86 +12 +12 1013.1 1011.1 125
01 14.06 ЮВ 3 н/о н/о +12.4 +10.4 88 +11 +11 1012.6 1010.6
02 14.06 Ю 3 н/о н/о +12.6 +10.3 86 +11 +11 1012.6 1010.6
03 14.06 Ю 3 н/о н/о +12.6 +10.4 86 +11 +11 1012.5 1010.5
04 14.06 ЮЗ 1 н/о н/о +12.0 +10.3 89 +12 +12 1013.0 1011.0
05 14.06 Ю 2 н/о н/о +12.5 +10.5 88 +12 +12 1013.1 1011.1 3
06 14.06 Ю 2
{5}
н/о н/о +13.1 +10.8 86 +12 +12 1013.5 1011.5 +12.0 8
07 14.06 Ю 2 н/о н/о +13.7 +11.1 84 +13 +13 1013.4 1011.5 19
08 14.06 З 2 н/о н/о +16.0 +12.3 79 +16 +16 1013.3 1011.3 116
09 14.06 Ю 3
{5}
н/о н/о +18.2 +12.7 70 +19 +19 1013.9 1011.9 179
10 14.06 ЮЗ 4 н/о н/о +19.5 +12.5 64 +21 +21 комфорт 1014.2 1012.3 217
11 14.06 Ю 5 н/о н/о +20.0 +11.8 59 +21 +21 комфорт 1014.3 1012.3 212
12 14.06 ЮЗ 5 н/о н/о +20.0 +12.2 61 +22 +22 комфорт 1014.4 1012.4 79
13 14.06 Ю 5 н/о н/о +21.3 +13.0 59 +24 +24 комфорт 1014.4 1012.4 162
14 14.06 ЮЗ 4 н/о н/о +22.0 +12.9 56 +25 +25 комфорт 1013.6 1011.7 226
15 14.06 ЮЗ 4 н/о н/о +22.3 +12.6 54 +25 +25 комфорт 1013.3 1011.3 168
16 14.06 ЮЗ 4 н/о н/о +22.1 +12.5 54 +25 +25 комфорт 1013.0 1011.1 107
17 14.06 Ю 2 н/о н/о +22.1 +12.6 55 +25 +25 комфорт 1012.7 1010.8 104
18 14.06 Ю 1
{8}
н/о н/о +22.2 +12.3 53 +25 +25 комфорт 1012.7 1010.7 +22.6 79
19 14.06 н/о н/о +19.2 +13.3 69 1013.0 1011.1 37
20 14.06 С 4 н/о н/о +17.3 +11.7 70 +17 +17 1013.2 1011.2 11
21 14.06 С 4 н/о н/о +16.4 +11.5 73 +16 +16 1013.5 1011.6
22 14.06 С 4 н/о н/о +15.9 +9.8 67 +15 +15 1013.1 1011.1
23 14.06 С 3 н/о н/о +15.4 +9.7 69 +15 +15 1012.4 1010.5
00 15.06 С 4 н/о н/о +15.3 +9.5 68 +14 +14 1012.0 1010.0 185
01 15.06 СЗ 3 н/о н/о +13.3 +10.7 84 +12 +12 1012.2 1010.3
02 15.06 СВ 3 н/о н/о +12.9 +11.3 90 +11 +11 1012.4 1010.4
03 15.06 С 2 н/о н/о +12.8 +11.6 92 +12 +12 1012.1 1010.1
04 15.06 С 4 н/о н/о +12.9 +11.9 94 +11 +11 1011.9 1009.9
05 15.06 З 2 н/о н/о +13.1 +12.1 94 +12 +12 1012.0 1010.0
06 15.06 З 3
{6}
н/о н/о +13.0 +11.9 93 +12 +12 1012.5 1010.6 +12.8 8
07 15.06 З 1 н/о н/о +13.2 +12.1 93 +13 +13 1013.1 1011.1 15
08 15.06 З 2 н/о н/о +13.6 +12.4 92 +13 +13 1013.9 1011.9 22
09 15.06 З 2
{4}
н/о н/о +13.8 +12.6 92 +13 +13 1014.4 1012.4 22
10 15.06 З 2 н/о н/о +15.0 +13.5 91 +15 +15 1014.9 1012.9 79
11 15.06 СЗ 1 н/о н/о +17.3 +13.7 79 +18 +18 1015.1 1013.1 180
12 15.06 Ю 1
{5}
н/о н/о +19.1 +12.8 67 +21 +21 комфорт 1015.6 1013.7 285
13 15.06 ЮЗ 2 н/о н/о +19.2 +12.3 64 +21 +21 комфорт 1015.4 1013.5 171
14 15.06 З 2 н/о н/о +20.9 +12.3 58 +24 +24 комфорт 1015.1 1013.2 210
15 15.06 СЗ 5 н/о н/о +19.1 +13.1 68 +20 +20 1015.7 1013.7 142
16 15.06 С 4 н/о н/о +18.8 +13.2 70 +20 +20 1015.8 1013.8 114
17 15.06 С 2 н/о н/о +18.6 +12.4 67 +20 +20 1015.9 1014.0 82
18 15.06 В 2
{8}
н/о н/о +18.8 +12.7 68 +20 +20 1015.9 1014.0 +21.2 67
19 15.06 В 2 н/о н/о +17.5 +12.7 73 +18 +18 1015.9 1014.0 20
20 15.06 СВ 2 н/о н/о +17.1 +12.9 76 +17 +17 1016.3 1014.3 5
21 15.06 СЗ 1 н/о н/о +16.6 +13.4 81 +17 +17 1016.7 1014.8
22 15.06 Ю 2 н/о н/о +15.5 +13.2 86 +15 +15 1016.9 1014.9
23 15.06 ЮЗ 1 н/о н/о +14.0 +11.5 85 +14 +14 1017.3 1015.3
00 16.06 Ю 2 н/о н/о +14.1 +10.8 81 +14 +14 1017.6 1015.7 142
01 16.06 Ю 2 н/о н/о +14.1 +10.2 77 +14 +14 1017.9 1015.9
02 16.06 ЮЗ 3 н/о н/о +13.7 +10.1 79 +13 +13 1018.0 1016.0
03 16.06 Ю 2 н/о н/о +13.0 +9.9 81 +12 +12 1018.3 1016.3
04 16.06 Ю 2 н/о н/о +12.5 +9.9 84 +12 +12 1018.6 1016.6
05 16.06 Ю 4 н/о н/о +13.8 +10.8 82 +12 +12 1018.7 1016.7 14
06 16.06 ЮЗ 4
{7}
н/о н/о +14.7 +11.5 81 +13 +13 1019.0 1017.0 +12.2 35
07 16.06 ЮЗ 4 н/о н/о +15.5 +11.9 79 +15 +15 1019.6 1017.6 74
08 16.06 З 5 н/о н/о +16.1 +12.3 78 +15 +15 1020.0 1018.1 95
09 16.06 З 4
{9}
н/о н/о +16.5 +12.1 75 +16 +16 1020.4 1018.4 102
10 16.06 ЮЗ 3 н/о н/о +17.2 +12.7 75 +17 +17 1020.6 1018.7 111
11 16.06 ЮЗ 6 н/о н/о +18.9 +11.7 63 +19 +19 1020.7 1018.8 229
12 16.06 ЮЗ 5 н/о н/о +20.1 +11.9 59 +22 +22 комфорт 1020.4 1018.4 254
13 16.06 ЮЗ 5 н/о н/о +20.7 +11.7 56 +23 +23 комфорт 1020.5 1018.6 195
14 16.06 ЮЗ 6 н/о н/о +20.8 +12.2 58 +23 +23 комфорт 1020.6 1018.7 142
15 16.06 Ю 4 н/о н/о +20.4 +11.9 58 +22 +22 комфорт 1020.6 1018.6 159
16 16.06 ЮЗ 2 н/о н/о +20.8 +13.1 61 +24 +24 комфорт 1020.7 1018.8 119
17 16.06 ЮЗ 3 н/о н/о +20.2 +13.0 63 +23 +23 комфорт 1020.6 1018.7 93
18 16.06 ЮЗ 2
{10}
н/о н/о +20.1 +13.2 64 +23 +23 комфорт 1020.7 1018.8 +21.4 48
19 16.06 ЮЗ 3 н/о н/о +19.3 +13.2 68 +21 +21 комфорт 1021.0 1019.0 13
20 16.06 ЮЗ 1 н/о н/о +18.0 +13.0 73 +19 +19 1020.9 1018.9 8
21 16.06 ЮЗ 1 н/о н/о +15.7 +12.6 82 +16 +16 1021.2 1019.2
22 16.06 З 1 н/о н/о +14.2 +12.2 88 +15 +15 1021.4 1019.4
23 16.06 В 1 н/о н/о +13.6 +11.9 89 +14 +14 1021.3 1019.3
00 17.06 штиль 0 н/о н/о +12.6 +11.2 91 +12 +12 1021.4 1019.4 170
01 17.06 штиль 0 н/о н/о +12.0 +10.8 92 +11 +11 1021.2 1019.2
02 17.06 В 1 н/о н/о +13.1 +11.8 92 +13 +13 1020.9 1018.9
03 17.06 В 1 н/о н/о +12.9 +11.8 93 +13 +13 1020.7 1018.7
04 17.06 ЮВ 2 н/о н/о +13.0 +11.7 92 +12 +12 1020.5 1018.5
05 17.06 Ю 2 н/о н/о +14.7 +12.4 86 +14 +14 1020.8 1018.8 13
06 17.06 Ю 2
{4}
н/о н/о +16.8 +13.2 79 +17 +17 1020.6 1018.7 +11.6 58
07 17.06 Ю 2 н/о н/о +19.0 +13.9 72 +21 +21 комфорт 1020.7 1018.8 102
08 17.06 Ю 3 н/о н/о +20.4 +13.4 64 +23 +23 комфорт 1020.7 1018.8 150
09 17.06 Ю 3
{6}
н/о н/о +21.3 +12.9 59 +24 +24 комфорт 1020.6 1018.6 177
10 17.06 ЮЗ 3 н/о н/о +21.4 +12.8 58 +24 +24 комфорт 1020.2 1018.3 189
11 17.06 Ю 3 н/о н/о +22.5 +13.0 55 +25 +25 комфорт 1019.9 1017.9 220
12 17.06 ЮЗ 3 н/о н/о +22.8 +13.1 54 +26 +26 жарко 1019.4 1017.5 233
13 17.06 ЮЗ 3 н/о н/о +23.8 +13.8 53 +26 +26 жарко 1019.3 1017.3 243
14 17.06 ЮЗ 3 н/о н/о +23.9 +13.4 52 +26 +26 жарко 1018.8 1016.9 217
15 17.06 З 3 н/о н/о +24.5 +13.2 49 +27 +27 жарко 1018.3 1016.4 191
16 17.06 ЮЗ 3 н/о н/о +24.6 +13.5 50 +27 +27 жарко 1017.9 1016.0 160
17 17.06 Ю 3 н/о н/о +24.6 +12.7 47 +26 +26 жарко 1017.6 1015.7 123
18 17.06 ЮЗ 2
{6}
н/о н/о +24.4 +12.9 49 +26 +26 жарко 1017.3 1015.4 +24.8 89
19 17.06 ЮЗ 1 н/о н/о +23.5 +13.3 53 +26 +26 жарко 1017.1 1015.2 37
20 17.06 штиль 0 н/о н/о +19.3 +14.6 74 +21 +21 комфорт 1017.1 1015.2 4
21 17.06 СВ 2 н/о н/о +18.1 +14.5 79 +19 +19 1017.2 1015.3
22 17.06 С 2 н/о н/о +17.5 +14.7 84 +18 +18 1017.4 1015.4
23 17.06 С 2 н/о н/о +17.3 +14.0 81 +18 +18 1017.4 1015.4
00 18.06 СЗ 1 н/о н/о +15.5 +13.1 86 +16 +16 1017.2 1015.3 221
01 18.06 З 2 н/о н/о +14.7 +12.9 89 +14 +14 1017.0 1015.1
02 18.06 штиль 0 н/о н/о +13.7 +12.0 89 +13 +13 1016.7 1014.7
03 18.06 З 1 н/о н/о +12.9 +11.6 92 +13 +13 1016.5 1014.5
04 18.06 З 1 н/о н/о +12.9 +11.5 91 +13 +13 1016.4 1014.4
05 18.06 ЮЗ 1 н/о н/о +13.7 +12.2 91 +14 +14 1016.4 1014.5 15
06 18.06 С 1
{3}
н/о н/о +16.8 +12.2 74 +18 +18 1016.2 1014.2 +12.7 45
07 18.06 С 2 н/о н/о +18.4 +12.9 70 +19 +19 1016.1 1014.1 81
08 18.06 СВ 2 н/о н/о +20.0 +13.3 65 +23 +23 комфорт 1015.9 1014.0 128
09 18.06 СВ 2
{4}
н/о н/о +21.3 +14.6 66 +24 +24 комфорт 1015.5 1013.6 132
10 18.06 В 2 н/о н/о +22.9 +14.7 60 +27 +27 душно 1015.1 1013.2 191
11 18.06 В 2 н/о н/о +24.4 +15.1 56 +27 +27 жарко 1014.7 1012.8 226
12 18.06 СЗ 1 н/о н/о +25.4 +14.6 51 +28 +28 жарко 1014.3 1012.4 243
13 18.06 В 2 н/о н/о +26.2 +13.9 47 +28 +28 жарко 1013.8 1011.9 225
14 18.06 Ю 1 н/о н/о +26.8 +12.8 42 +28 +28 жарко 1013.2 1011.3 233
15 18.06 ЮВ 2 н/о н/о +27.3 +13.2 42 +29 +29 жарко 1012.5 1010.7 190
16 18.06 В 3 н/о н/о +26.7 +13.9 45 +29 +29 жарко 1011.8 1009.9 142
17 18.06 В 2 н/о н/о +26.1 +14.1 48 +28 +28 жарко 1011.6 1009.7 89
18 18.06 В 1
{5}
н/о н/о +25.5 +14.6 51 +28 +28 жарко 1011.2 1009.3 +27.3 41
19 18.06 штиль 0 н/о н/о +24.2 +16.9 64 +28 +28 душно 1011.0 1009.1 15
20 18.06 СВ 1 н/о н/о +22.0 +17.0 73 +26 +26 душно 1010.9 1008.9 5
21 18.06 В 2 н/о н/о +21.1 +16.4 75 +25 +25 комфорт 1010.7 1008.8
22 18.06 штиль 0 н/о н/о +19.4 +16.0 81 +21 +21 комфорт 1010.4 1008.5
23 18.06 В 1 н/о н/о +17.1 +14.9 87 +18 +18 1009.7 1007.7
00 19.06 В 1 н/о н/о +16.9 +14.9 88 +18 +18 1009.0 1007.0 200
01 19.06 В 2 н/о н/о +17.2 +15.6 90 +18 +18 1008.5 1006.5
02 19.06 СВ 1 н/о н/о +17.3 +15.0 86 +18 +18 1008.0 1006.1
03 19.06 СЗ 3 н/о н/о +18.7 +15.0 79 +20 +20 1008.2 1006.3
04 19.06 С 4 н/о н/о +18.4 +13.6 74 +19 +19 1007.6 1005.7
05 19.06 С 4 н/о н/о +17.8 +14.2 79 +18 +18 1007.6 1005.7 9
06 19.06 СВ 2
{11}
н/о н/о +17.4 +14.1 81 +18 +18 1006.9 1005.0 +16.3 7
07 19.06 В 3 н/о н/о +17.6 +13.7 78 +18 +18 1007.4 1005.5 47
08 19.06 ЮВ 3 н/о н/о +18.4 +14.2 77 +19 +19 1007.3 1005.3 79
09 19.06 ЮВ 3
{6}
н/о н/о +19.4 +14.2 72 +21 +21 комфорт 1007.9 1005.9
10 19.06 СЗ 1 н/о н/о +20.7 +14.4 67 +25 +25 комфорт 1008.3 1006.4 90
11 19.06 В 3 н/о н/о +20.2 +15.4 74 +23 +23 комфорт 1007.6 1005.7 60
12 19.06 В 2 н/о н/о +21.8 +16.6 72 +26 +26 душно 1007.5 1005.6 95
13 19.06 ЮЗ 4 н/о н/о +24.0 +17.8 68 +28 +28 душно 1007.3 1005.4 155
14 19.06 ЮЗ 4 н/о н/о +25.6 +18.5 65 +30 +30 душно 1006.5 1004.7 190
15 19.06 ЮЗ 4 н/о н/о +23.8 +17.7 69 +28 +28 душно 1006.6 1004.7 122
16 19.06 ЮЗ 4 н/о н/о +17.7 +14.9 84 +17 +17 1007.5 1005.6 4
17 19.06 ЮЗ 3 н/о н/о +19.6 +16.6 83 +22 +22 комфорт 1007.6 1005.7 62
18 19.06 З 2
{13}
н/о н/о +19.9 +17.3 85 +23 +23 комфорт 1007.6 1005.7 +25.8 51
19 19.06 ЮЗ 1 н/о н/о +19.2 +17.3 89 +22 +22 комфорт 1007.8 1005.8 2
20 19.06 З 2 н/о н/о +17.6 +15.9 90 +18 +18 1008.8 1006.9
21 19.06 З 1 н/о н/о +17.1 +15.8 92 +18 +18 1009.2 1007.3
22 19.06 З 1 н/о н/о +16.6 +15.0 90 +17 +17 1009.5 1007.5
23 19.06 ЮЗ 2 н/о н/о +16.2 +14.8 91 +16 +16 1009.9 1008.0
00 20.06 ЮЗ 3
{5}
н/о н/о +16.2 +14.7 91 +16 +16 1010.3 1008.3 103
01 20.06 ЮЗ 3 н/о н/о +15.5 +14.0 91 +15 +15 1010.4 1008.5
02 20.06 ЮЗ 3 н/о н/о +14.9 +13.4 91 +14 +14 1010.5 1008.6
03 20.06 ЮЗ 3 н/о н/о +14.5 +12.9 90 +14 +14 1010.8 1008.8
04 20.06 ЮЗ 2 н/о н/о +14.3 +12.8 91 +14 +14 1011.2 1009.2
05 20.06 ЮЗ 3 н/о н/о +14.9 +13.1 89 +14 +14 1011.5 1009.5 5
06 20.06 З 3
{9}
н/о н/о +15.0 +12.6 86 +14 +14 1011.7 1009.8 +14.2 15
07 20.06 ЮЗ 4 н/о н/о +15.7 +12.7 82 +15 +15 1011.7 1009.8 40
08 20.06 ЮЗ 5 н/о н/о +16.9 +13.3 79 +16 +16 1012.0 1010.0 117
09 20.06 З 4
{9}
н/о н/о +18.0 +13.0 73 +18 +18 1012.5 1010.5 130
10 20.06 З 5 н/о н/о +18.6 +13.7 73 +19 +19 1012.7 1010.7 188
11 20.06 ЮЗ 5 н/о н/о +19.1 +13.3 69 +20 +20 1013.1 1011.1 155
12 20.06 З 5 н/о н/о +20.7 +13.1 62 +23 +23 комфорт 1013.2 1011.2 219

 

Местоположение метеостанции Мелле (Бельгия): широта 50.98 долгота 3.82 высота над уровнем моря 13 м.

В архиве по умолчанию представлена погода в Мелле за последнюю неделю. Архивные данные за месяц целиком и за предыдущие месяцы, начиная с января 2011 года, Вы можете получить, выбрав интересующий диапазон дат из раскрывающегося списка и нажав кнопку "Ввод!".


*Определитесь, кто Вы:
робот инопланетянин человек

Внимание! Время в таблицах - всемирное. Для получения местного времени необходимо прибавить поправку, которая равна 1 ч.

Смотрите также архив погоды в соседних городах и на ближайших метеорологических станциях:

Погода в Семмерзэйке (Бельгия) (12 км)
Погода в Генте (Бельгия) (22 км)
Погода в Вестдорпе (Нидерланды) (28 км)
Погода в Уккеле (Бельгия) (42 км)
Погода в Шьевре (Бельгия) (46 км)
Погода в Хуфдплате (Нидерланды) (46 км)
Погода в Бейтеме (Бельгия) (50 км)
Погода в Брюсселе (Бельгия) (51 км)
Погода в Антверпене (Бельгия) (52 км)
Погода в Гансверте (Нидерланды) (54 км)

Пояснения к столбцам:

Ветер - указаны скорость ветра в м/с - средняя за 10 мин, порывы в срок и между сроками (в фигурных скобках) и направление, откуда дует ветер: С - северный, СВ - северо-восточный, В - восточный, ЮВ - юго-восточный, Ю - южный, ЮЗ - юго-западный, З - западный, СЗ - северо-западный.
Видимость - горизонтальная дальность видимости в метрах или километрах. При видимости от 1 до 10 км при отсутствии осадков обычно наблюдается дымка, при ухудшении видимости до 1 км и менее - туман. В сухую погоду видимость может ухудшаться дымом, пылью или мглою.
Явления - указаны атмосферные явления, наблюдавшиеся в срок или в последний час перед сроком; фигурными скобками обозначены явления, наблюдавшиеся между сроками (за 1-3 часа до срока); квадратными скобками обозначены град или гололедные отложения с указанием их диаметра в мм.
Облачность - указаны через наклонную черту общая и нижняя облачность в баллах и высота нижней границы облаков в метрах; квадратными скобками обозначены формы облаков: Ci - перистые, Cs - перисто-слоистые, Cc - перисто-кучевые, Ac - высококучевые, As - высокослоистые, Sc - слоисто-кучевые, Ns - слоисто-дождевые, Cu - кучевые, Cb - кучево-дождевые. Подробнее классификацию облаков см. в Атласе облаков (PDF).
T - Температура воздуха - температура, измеренная на высоте 2 м над землей.
Td - Температура точки росы - температура, при понижении до которой содержащийся в воздухе водяной пар достигнет насыщения.
f - Относительная влажность воздуха - влажноcть воздуха, измеренная на высоте 2 м над землей.
Te - Эффективная температура - температура, которую ощущает одетый по сезону человек в тени. Характеристика душности погоды. При расчете учитывается влияние влажности воздуха и скорости ветра на теплоощущения человека.
Tes - Эффективная температура на солнце - температура, которую ощущает человек, с поправкой на солнечный нагрев. Характеристика знойности погоды. Зависит от высоты солнца над горизонтом, облачности и скорости ветра. Ночью, в пасмурную погоду, а также при ветре 12 м/с и более поправка равна нулю.
P - Атмосферное давление - приведенное к уровню моря атмосферное давление.
Po - Атмосферное давление - измеренное на уровне метеостанции атмосферное давление.
Tmin - Минимальная температура - минимум температуры воздуха на высоте 2 м над землей.
Tmax - Максимальная температура - максимум температуры воздуха на высоте 2 м над землей.
R - Количество осадков - Количество выпавших осадков за период времени, мм. При наведении курсора мыши на число - период времени, за который выпало указанное количество осадков.
R24 - Количество осадков - Количество выпавших осадков за 24 часа, мм.
S - Снежный покров - Высота снежного покрова, см. При наведении курсора мыши на число - состояние снежного покрова и степень покрытия местности в баллах.